Hourly Data Report for October 23, 2021

DRYDEN REGIONAL
ONTARIO
Current Station Operator: NAVCAN

49°49'39.000" N
92°44'39.000" W
412.70 m
6032125
71527
YHD

Download Data

Hourly Data (October 2021)
Hourly Data Report for October 23, 2021
TIME
LST
Temp Definition
°C
Dew Point Definition
°C
Rel Hum Definition
%
Precip. Amount Definition
mm

Wind Dir Definition
10's deg

Wind Spd Definition
km/h
Visibility Definition
km
Stn Press Definition
kPa
Hmdx Definition


Wind Chill Definition


Weather Definition


00:00 1.4 0.8 96 0.0 34 9 16.1 97.03     LegendNANA
01:00 1.7 1.0 95 0.0 36 9 16.1 97.01     LegendNANA
02:00 1.7 0.8 94 0.0 36 9 16.1 97.03     LegendNANA
03:00 1.3 0.7 96 0.0 2 9 16.1 97.04     LegendNANA
04:00 0.8 0.4 97 0.0 2 8 4.8 97.06     Fog
05:00 0.2 -0.1 98 0.0 33 8 1.6 97.07     Fog
06:00 0.1 -0.2 98 0.0 2 8 16.1 97.06     LegendNANA
07:00 0.2 -0.1 98 0.0   0 1.0 97.09     Fog
08:00 0.3 0.0 98 0.0 29 5 0.8 97.10     Fog
09:00 0.7 0.4 98 0.0 LegendMM 4 0.8 97.08     Rain, Fog
10:00 1.5 1.1 97 0.0 LegendMM 4 2.8 97.09     Fog
11:00 2.6 1.3 91 0.0 33 8 16.1 97.06     Rain
12:00 4.1 2.2 88 0.2 3 8 16.1 97.02     LegendNANA
13:00 5.0 1.6 79 0.0 35 15 16.1 96.93     LegendNANA
14:00 4.0 1.1 82 0.2 29 8 16.1 96.89     LegendNANA
15:00 4.2 0.5 77 0.0 1 5 16.1 96.86     Rain
16:00 3.6 0.2 78 0.0 36 5 16.1 96.87     LegendNANA
17:00 2.8 -0.3 80 0.0 32 8 16.1 96.86     LegendNANA
18:00 2.5 -0.3 82 0.0 30 9 16.1 96.88     LegendNANA
19:00 2.4 0.3 86 0.0 31 8 16.1 96.85     LegendNANA
20:00 2.3 0.4 87 0.0 2 8 16.1 96.87     LegendNANA
21:00 1.6 0.3 91 0.0 33 5 16.1 96.89     LegendNANA
22:00 1.4 0.2 92 0.0 34 9 16.1 96.90     LegendNANA
23:00 0.8 0.1 95 0.0 35 8 16.1 96.91     LegendNANA

Notes on Data Quality.

Legend

  • E = Estimated
  • M = Missing
  • NA = Not Available*
  • [empty] = Indicates an unobserved value
Date modified: